Weather in Rozhnyativ

Ukraine / Ivano-Frankovsk District     48˚56′12″N   24˚09′22″E
temp.,
°C
wind,
m/s
gust,
m/s
humid.,
%
clouds,
%
prec.,
mm/h
press.,
hPa
HPBL,
m
30 november, mon
mon3023:00−3˚s119787 1.1 102439
02:00−4˚sw119178 1.2 102521
05:00−4˚nw118763 0.0 102521
08:00−5˚nw119573 0.0 102621
11:00−2˚nw118822 0.0 1028221
14:00−1˚nne228317 0.0 1027381
17:00−4˚ese01924 0.0 102821
20:00−5˚se11942 0.0 102921
1 december, tue
tue123:00−5˚se11930 0.0 102921
02:00−5˚se12920 0.0 102821
05:00−5˚se22910 0.0 102829
08:00−6˚se23910 0.0 102864
11:00−2˚se46800 0.0 1027333
14:00ese46760 0.0 1025395
17:00−4˚ese36870 0.0 1025139
20:00−5˚se49880 0.0 1027211
2 december, wed
wed223:00−5˚se37890 0.0 1026203
02:00−6˚ese36910 0.0 1027135
05:00−6˚ese35920 0.0 1025100
08:00−7˚ese23930 0.0 102589
11:00−3˚ese36831 0.0 1024350
14:00−1˚ese468421 0.0 1023441
17:00−3˚se369471 0.0 1022177
20:00−4˚se379664 0.0 1022209
3 december, thu
thu323:00−4˚se369657 0.0 1022186
02:00−5˚se359552 0.0 1022103
05:00−5˚se349188 0.0 1021107
08:00−5˚ese239061 0.0 102156
11:00−2˚ese358220 0.0 1020192
14:00ese477947 0.0 1018262
17:00−2˚se498796 0.0 1018222
20:00−3˚ese489098 0.0 1017199
4 december, fri
fri423:00−3˚ese479367 0.0 1016161
02:00−3˚ese479336 0.0 1014172
05:00−3˚ese489433 0.0 1012192
08:00−3˚ese379325 0.0 1011154
11:00+1˚ese358024 0.0 1011186
14:00+3˚se227812 0.0 100994
17:00+2˚sse238083 0.0 101035
20:00+3˚se238990 0.0 101165